This is the latest recevied weather packets stored in our database for station/object N5UKZ-WX. If no packets are shown the sender has not sent any weather packets the latest 10 day(s).
| Time | Temp. | Humidity | Pressure | Rain* | Wind** | Luminosity | Snow |
|---|---|---|---|---|---|---|---|
| 1777777590 | 17.22° C | 72% | 1019.3 hPa | 0 mm | - | - | - |
| 1777776690 | 17.22° C | 73% | 1019 hPa | 0 mm | - | - | - |
| 1777775790 | 18.33° C | 74% | 1019 hPa | 0 mm | - | - | - |
| 1777774890 | 18.89° C | 73% | 1018.7 hPa | 0 mm | - | - | - |
| 1777773989 | 17.78° C | 72% | 1018.7 hPa | 0 mm | - | - | - |
| 1777773089 | 18.33° C | 71% | 1018.3 hPa | 0 mm | - | - | - |
| 1777772189 | 18.89° C | 71% | 1018 hPa | 0 mm | - | - | - |
| 1777771289 | 19.44° C | 71% | 1018 hPa | 0 mm | - | - | - |
| 1777770388 | 19.44° C | 69% | 1017.7 hPa | 0 mm | - | - | - |
| 1777769488 | 18.89° C | 69% | 1017.7 hPa | 0 mm | - | - | - |
| 1777768588 | 19.44° C | 68% | 1017.3 hPa | 0 mm | - | - | - |
| 1777767688 | 20.56° C | 68% | 1017 hPa | 0 mm | - | - | - |
| 1777766788 | 21.11° C | 68% | 1017 hPa | 0 mm | - | - | - |
| 1777765887 | 20.56° C | 67% | 1016.6 hPa | 0 mm | - | - | - |
| 1777764987 | 21.11° C | 67% | 1016.6 hPa | 0 mm | - | - | - |
| 1777764087 | 21.11° C | 67% | 1016.3 hPa | 0 mm | - | - | - |
| 1777763187 | 22.22° C | 67% | 1016.3 hPa | 0 mm | - | - | - |
| 1777762287 | 21.67° C | 67% | 1016 hPa | 0 mm | - | - | - |
| 1777761387 | 21.67° C | 68% | 1016 hPa | 0 mm | - | - | - |
| 1777760486 | 21.67° C | 68% | 1016 hPa | 0 mm | - | - | - |
| 1777759586 | 22.22° C | 69% | 1016 hPa | 0 mm | - | - | - |
| 1777758686 | 22.22° C | 68% | 1016 hPa | 0 mm | - | - | - |
| 1777757786 | 21.11° C | 71% | 1016 hPa | 0 mm | - | - | - |
| 1777756886 | 22.22° C | 72% | 1016 hPa | 0 mm | - | - | - |
| 1777755985 | 21.67° C | 71% | 1016.3 hPa | 0 mm | - | - | - |
* Rain latest hour (hover to see other rain measurements)
** Current wind speed in m/s (hover to see current wind gust speed)